Location: Unspecified
(35.6961°N, 0.0000°E)
Time: 23:27:55
(UTC+00:00)

Vanguard 2 Rocket - Pass Details

Date: 30 May 2019
Orbit: 554 x 3326 km, 32.9° (Epoch: 19 June)

Event Time Altitude Azimuth Distance (km) Brightness Sun altitude
Rises 04:46:44 0° 251° (WSW) 7,221 - -0.8°
Exits shadow 04:46:45 - 251° (WSW) 7,219 10.8 -0.8°
Reaches altitude 10° 04:51:31 10° 251° (WSW) 6,272 10.5 0.1°
Maximum altitude 05:11:55 77° 170° (S) 2,985 9.6 3.8°
Drops below altitude 10° 05:26:12 10° 87° (E) 4,617 12.2 6.5°
Sets 05:29:08 0° 86° (E) 5,313 12.5 7.1°
